2021-091L (49325 NORAD) Tracking and Keplerian Element Data

This shows tracking and keplerian element data for the satellite.

Feedback or suggestion? Click here.




ElementValue
Catalog49325
Name2021-091L
Epoch Orbit799
Epoch Day340.12148294
Epoch Year2021
RAAN165.2802
Inclination97.4721
Eccentricity0.0017806
Argument of Perigee87.1036
Mean Anonmoly52.5824
Mean Motion15.18176855
Decay Rate1.878E-05
L11 49325U 21091L 21340.12148294 .00001878 00000+0 94925-4 0 9993
L22 49325 97.4721 165.2802 0017806 87.1036 52.5824 15.18176855 7994

Live tracking and technical data element details for 2021-091L (NORAD 49325). 2021-091L can be tracked NOW for your location showing map with azimuth and elevation plus other details from your city location.

Track the satellite on the map from your city or location and see movement details for azimuth, elevation, latitude, longitude, range, height, and movement on the map or in text.







IsCatalogInMostPopularTable: catalog: 49325, numindb: 6
Update: records affected: 1



GetName: 49325 2021-091L

Hit Count: updated at: Mon, 06 Dec 2021 13:45:59 GMT